Location: Unspecified
(0.0000°N, 0.0000°E)
Time: 06:11:28
(UTC-04:00)

Tiangong - Visible Passes

Search period start: 17 September 2021 00:00
Search period end: 27 September 2021 00:00
Orbit: 380 x 384 km, 41.5° (Epoch: 16 September)

Date Brightness Start Highest point End Pass type
(mag) Time Alt. Az. Time Alt. Az. Time Alt. Az.
17 Sep 3.7 00:48:11 10° S 00:50:22 17° SE 00:52:34 10° E visible
18 Sep 1.2 01:23:31 10° WSW 01:26:36 53° NW 01:29:39 10° NE visible
19 Sep 2.0 00:26:19 45° SE 00:26:19 45° SE 00:29:11 10° ENE visible
20 Sep 2.6 01:01:52 19° WNW 01:02:19 20° NW 01:04:42 10° N visible
